Terminal Aerodrome Forecast
Issued by NWS Springfield, MO

Home | Current Version | Previous Version | Text Only | Print | Product List | Glossary On
Versions: 1 2 3 4 5 6 7 8 9 10 11 12 13 14 15 16
000
FTUS43 KSGF 231135
TAFSGF
TAF
KSGF 231135Z 2312/2412 17011KT P6SM VCTS BKN040CB
      TEMPO 2313/2316 5SM TSRA OVC025CB
     FM231700 19012G19KT P6SM BKN050 PROB30 2321/2324 P6SM TSRA
      BKN040CB
     FM240000 18010KT P6SM BKN050 PROB30 2400/2403 P6SM TSRA
      BKN040CB=

USA.gov is the U.S. government's official web portal to all federal, state and local government web resources and services.